Information Storage

This is the current data collected from the Raspberry Pis. Data is sampled asynchronously. The server scripts process and synchronize the data before storage.


Time PV Temperature (F) Irradiance (W/m2) Die Temperature (F) PV Voltage (V) Forecasted Irradiance (W/m2) Forecasted Power (W)
3/17/17 21:05:53 17.35 0 40.27 0
3/17/17 21:00:53 18.79 0 40.61 0.53
3/17/17 20:55:58 21.24 0 40.49 0
3/17/17 20:50:54 21.51 0 40.61 0.26
3/17/17 20:45:54 21.53 0 40.94 0.13
3/17/17 20:40:54 24.36 0 40.83 0
3/17/17 20:35:54 24.71 0 40.83 0.66
3/17/17 20:31:00 22.11 0 41.11 0.13
3/17/17 20:25:55 20.13 0 41.11 0
3/17/17 20:20:55 21.85 0 41 0
3/17/17 20:15:56 23.93 0 41 0
3/17/17 20:11:01 22.9 0 41.17 0.13
3/17/17 20:05:56 22.68 0 41.45 0.26
3/17/17 20:00:56 23.43 0 41.39 0
3/17/17 19:55:57 22.54 0 41.39 0
3/17/17 19:50:57 23.68 0 41.45 0.53
3/17/17 19:45:57 24.18 0 41.56 0.53
3/17/17 19:40:58 21.93 0 41.56 1.05
3/17/17 19:35:59 24.69 0 41.73 2.76
3/17/17 19:30:58 22.61 0 41.68 9.46
3/17/17 19:25:59 24.66 0 41.84 24.57
3/17/17 19:20:59 24.64 0 42.46 43.62
3/17/17 19:16:05 24.59 0 42.24 56.62
3/17/17 19:10:59 25.38 0 42.13 67.27
3/17/17 19:06:00 23.91 0 42.13 83.56
3/17/17 19:01:03 24.72 0 42.29 88.15
3/17/17 18:56:16 24.95 0 42.29 92.49
3/17/17 18:51:01 25.38 0 42.35 98.4
3/17/17 18:46:01 24.35 0 42.69 106.94
3/17/17 18:41:01 24.86 0 43.31 110.36
3/17/17 18:36:01 24.07 0 42.97 111.8
3/17/17 18:31:02 23.6 0 43.19 112.85
3/17/17 18:26:07 24.13 0 43.42 114.82
3/17/17 18:21:02 23.51 0 43.53 115.61
3/17/17 18:16:03 24.88 0 43.81 115.88
3/17/17 18:11:03 24.78 0 44.32 117.98
3/17/17 18:06:03 23.21 24.4141 44.6 119.82
3/17/17 18:01:08 27.48 0 45.11 120.21
3/17/17 17:56:04 27.13 24.4141 44.43 120.34
3/17/17 17:51:04 32.75 48.8281 44.71 120.61
3/17/17 17:46:09 25.7 0 45.56 120.74
3/17/17 17:41:05 34.58 48.8281 45.84 121.79
3/17/17 17:36:10 24.34 0 45.72 121.52
3/17/17 17:31:05 31.36 48.8281 46.29 122.97
3/17/17 17:26:05 31.86 73.2422 46.91 121.13
3/17/17 17:21:06 30.61 73.2422 48.43 122.31
3/17/17 17:16:06 43.54 73.2422 49.21 121.52
3/17/17 17:11:06 32.29 122.07 54.16 121.66
3/17/17 17:06:06 23.99 244.141 60.29 123.23
3/17/17 17:01:07 23.23 317.383 63.16 123.5
3/17/17 16:56:07 27.97 292.969 62.15 123.76
3/17/17 16:51:07 43.52 292.969 58.83 123.63
3/17/17 16:46:08 5.53 390.625 64.4 124.02
3/17/17 16:41:08 -0.89 439.453 66.93 123.63
3/17/17 16:36:08 20.78 341.797 64.96 123.1
3/17/17 16:31:08 28.23 341.797 63.61 123.1
3/17/17 16:26:09 1.43 366.211 65.75 123.63
3/17/17 16:21:09 32.49 341.797 64.34 122.05
3/17/17 16:16:12 37.83 415.039 68.51 121.66
3/17/17 16:11:10 34.87 463.867 69.86 120.87
3/17/17 16:06:10 41.4 488.281 65.64 121.66
3/17/17 16:01:15 67.96 610.352 67.72 121.13
3/17/17 15:56:11 24.18 610.352 72.89 121
3/17/17 15:51:11 21.27 634.766 78.63 120.87
3/17/17 15:46:11 6.88 659.18 73.01 121
3/17/17 15:41:11 19.76 610.352 68.51 120.87
3/17/17 15:36:16 44.09 634.766 73.85 119.82
3/17/17 15:31:17 22.18 634.766 77.51 120.08
3/17/17 15:26:17 34.72 708.008 71.09 119.95
3/17/17 15:21:12 -1.79 659.18 70.08 119.69
3/17/17 15:16:12 78.26 756.836 71.99 120.34
3/17/17 15:11:18 35.7 756.836 71.37 120.08
3/17/17 15:06:18 9.13 756.836 79.87 120.08
3/17/17 15:01:13 59.82 805.664 77.28 119.95
3/17/17 14:56:14 -3.12 805.664 75.93 119.42
3/17/17 14:51:29 9.45 781.25 75.14 119.82
3/17/17 14:46:14 16 805.664 75.59 119.95
3/17/17 14:41:14 -3.15 854.492 72.67 119.55
3/17/17 14:36:15 -8.22 878.906 79.36 119.55
3/17/17 14:31:15 9.02 903.32 80.77 119.55
3/17/17 14:26:15 41.69 927.734 81.72 119.95
3/17/17 14:21:15 40.37 878.906 79.98 119.82
3/17/17 14:16:16 35.38 903.32 76.89 119.16
3/17/17 14:11:16 48.44 952.148 82.18 118.9
3/17/17 14:06:21 -6.13 927.734 82.23 118.9
3/17/17 14:01:21 -0.83 976.562 80.49 118.9
3/17/17 13:56:33 58.67 976.562 79.59 119.29
3/17/17 13:51:22 0.52 1000.98 82.79 119.55
3/17/17 13:46:28 42.25 1000.98 77.9 119.29
3/17/17 13:41:28 -2.55 976.562 81.89 119.03
3/17/17 13:36:32 0.7 1000.98 81.67 118.77
3/17/17 13:31:18 15.08 1000.98 73.18 120.34
3/17/17 13:26:18 50.86 1074.22 77.45 119.69
3/17/17 13:21:21 -4.58 1025.39 75.76 119.82
3/17/17 13:16:19 38.51 1025.39 72.16 120.08
3/17/17 13:11:19 46.87 1049.8 70.47 120.47
3/17/17 13:06:20 43.1 1025.39 65.24 120.61
3/17/17 13:01:20 84.5 1025.39 70.25 120.61
3/17/17 12:56:20 40.31 1025.39 75.37 119.82
3/17/17 12:51:20 64.91 1049.8 74.86 120.34
3/17/17 12:46:21 52.88 1049.8 74.52 120.34
3/17/17 12:41:21 76.53 1025.39 74.24 119.82
3/17/17 12:36:21 56.13 1049.8 76.72 119.95
3/17/17 12:31:21 30.93 1025.39 71.26 119.95
3/17/17 12:26:22 38.51 1049.8 74.81 120.74
3/17/17 12:21:22 67.52 1025.39 65.97 121.39
3/17/17 12:16:22 19.52 1025.39 66.43 120.87
3/17/17 12:11:23 -32.62 1025.39 58.72 121.79
3/17/17 12:06:28 51.39 1000.98 52.47 121.26
3/17/17 12:01:23 -4.08 1049.8 54.11 121.39
3/17/17 11:56:23 11.61 1000.98 52.93 122.05
3/17/17 11:51:24 17.27 1000.98 52.76 122.31
3/17/17 11:46:24 31.49 976.562 53.54 122.05
3/17/17 11:41:24 31.05 976.562 52.36 121.79
3/17/17 11:36:25 31.82 976.562 52.87 121.26
3/17/17 11:31:25 33.54 952.148 53.6 121.26
3/17/17 11:26:25 31.7 952.148 51.58 121.52
3/17/17 11:21:25 61.69 952.148 49.66 122.31
3/17/17 11:16:26 10.21 927.734 53.38 122.44
3/17/17 11:11:26 28.69 952.148 52.14 123.1
3/17/17 11:06:26 13.16 927.734 51.07 123.23
3/17/17 11:01:27 16.14 903.32 50.96 122.97
3/17/17 10:56:27 16.1 903.32 49.78 122.84
3/17/17 10:51:27 38.95 878.906 48.54 122.97
3/17/17 10:46:27 2.25 903.32 49.33 123.23
3/17/17 10:41:28 27.79 830.078 48.65 123.5
3/17/17 10:36:28 58.97 854.492 47.41 124.42
3/17/17 10:31:28 7.89 830.078 45.84 124.42
3/17/17 10:26:29 7.65 805.664 44.32 124.94
3/17/17 10:21:29 15.64 756.836 47.69 124.94
3/17/17 10:16:29 12.06 756.836 47.58 125.2
3/17/17 10:11:29 7.91 781.25 45.89 125.47
3/17/17 10:06:30 41.88 756.836 45.78 125.73
3/17/17 10:01:30 28.37 708.008 43.93 125.86
3/17/17 09:56:30 11.89 708.008 44.54 125.99
3/17/17 09:48:49 34.69 683.594 42.13 126.25
3/17/17 09:43:45 24.02 634.766 41.62 126.25
3/17/17 09:38:49 23.46 634.766 41.51 126.12
3/17/17 09:33:50 20.38 610.352 41.84 126.25
3/17/17 09:28:45 10.79 585.938 40.83 126.39
3/17/17 09:23:45 23.78 610.352 40.16 126.65
3/17/17 09:18:51 31.67 634.766 39.26 126.78
3/17/17 09:13:51 10.63 537.109 40.49 126.91
3/17/17 09:08:46 21.01 512.695 39.54 127.17
3/17/17 09:03:46 11.48 488.281 38.19 127.31
3/17/17 08:58:47 2.42 463.867 37.85 127.17
3/17/17 08:53:47 12.54 439.453 37.85 127.31
3/17/17 08:48:52 8.15 415.039 36.33 127.57
3/17/17 08:43:49 10.6 415.039 35.94 127.31
3/17/17 08:38:53 7.15 390.625 36.28 127.31
3/17/17 08:33:48 5.28 366.211 35.71 127.04
3/17/17 08:28:59 8.03 317.383 34.76 126.78
3/17/17 08:23:49 1.58 292.969 35.04 126.39
3/17/17 08:18:49 2.83 268.555 34.03 126.25
3/17/17 08:13:51 2.73 244.141 33.35 125.6
3/17/17 08:08:50 1.79 219.727 33.13 125.2
3/17/17 08:03:50 6.72 195.312 32.84 124.28
3/17/17 07:58:50 7.44 146.484 31.89 123.36
3/17/17 07:53:52 2.02 0 31.77 122.18
3/17/17 07:48:56 0.28 0 30.82 121
3/17/17 07:43:51 2.16 0 30.26 114.82
3/17/17 07:38:52 1.47 0 29.64 113.12
3/17/17 07:33:52 -2.05 0 29.52 112.99
3/17/17 07:28:52 -2.17 0 28.96 109.7
3/17/17 07:23:53 -5.77 0 28.91 107.07
3/17/17 07:18:53 0.96 0 28.85 103.79
3/17/17 07:13:58 0.91 0 28.91 99.19
3/17/17 07:08:54 2.2 0 28.79 92.36
3/17/17 07:03:54 1.81 0 28.57 83.56
3/17/17 06:59:04 3.01 0 28.4 71.34
3/17/17 06:53:55 0.13 0 28.17 53.73
3/17/17 06:48:55 2.2 0 28.46 31.66
3/17/17 06:43:55 -0.38 0 28.79 12.48
3/17/17 06:38:55 1.19 0 28.62 3.94
3/17/17 06:34:01 1.37 0 28.79 1.58
3/17/17 06:28:57 -1.37 0 29.07 0
3/17/17 06:23:56 2.73 0 29.02 0.39
3/17/17 06:18:57 1.85 0 29.13 0
3/17/17 06:13:57 1.9 0 29.02 0.39
3/17/17 06:08:57 1.51 0 29.13 0
3/17/17 06:03:58 2.77 0 29.58 0
3/17/17 05:58:58 2.28 0 29.52 0.39
3/17/17 05:54:08 4.05 0 29.81 0.26
3/17/17 05:49:04 2.36 0 29.58 0
3/17/17 05:43:59 1.35 0 30.03 0.39
3/17/17 05:38:59 2.2 0 29.81 0
3/17/17 05:34:00 4.42 0 29.97 0
3/17/17 05:29:00 2.11 0 30.65 0.13
3/17/17 05:24:00 2.98 0 29.92 0.39
3/17/17 05:19:00 3.28 0 30.03 0.26
3/17/17 05:14:01 0.85 0 30.87 0.39
3/17/17 05:09:01 4.86 0 29.81 0
3/17/17 05:04:01 4.33 0 29.86 0
3/17/17 04:59:02 3.08 0 29.75 0.39
3/17/17 04:54:02 0.64 0 30.26 0
3/17/17 04:49:02 3.7 0 30.09 0
3/17/17 04:44:03 3.82 0 30.03 0
3/17/17 04:39:03 2.35 0 30.2 0
3/17/17 04:34:03 5.8 0 30.76 0
3/17/17 04:29:04 3.81 0 30.31 0
3/17/17 04:24:04 4.38 0 30.42 0
3/17/17 04:19:04 4.19 0 30.14 0
3/17/17 04:14:04 1.71 0 30.71 0.13
3/17/17 04:09:05 3.27 0 30.65 0
3/17/17 04:04:05 2.29 0 30.54 0
3/17/17 03:59:05 4.91 0 30.37 0
3/17/17 03:54:06 4.47 0 30.54 0
3/17/17 03:49:06 3.95 0 30.93 0.39
3/17/17 03:44:06 4.08 0 30.93 0
3/17/17 03:39:12 4.38 0 31.38 0
3/17/17 03:34:07 3.33 0 32.11 0
3/17/17 03:29:07 4.92 0 32.28 0
3/17/17 03:24:08 1.37 0 31.66 0
3/17/17 03:19:08 3.34 0 31.27 0
3/17/17 03:14:08 4.43 0 32.17 0
3/17/17 03:09:09 5.51 0 31.61 0
3/17/17 03:04:09 4.58 0 31.04 0.13
3/17/17 02:59:09 6.33 0 31.66 0.13
3/17/17 02:54:09 6.91 0 32.17 0
3/17/17 02:49:10 3.99 0 32.62 0.13
3/17/17 02:44:10 2.84 0 32.06 0.13
3/17/17 02:39:11 3.19 0 31.83 0
3/17/17 02:34:11 6.9 0 32.11 0
3/17/17 02:29:11 3.13 0 33.01 0
3/17/17 02:24:11 4.51 0 32.56 0
3/17/17 02:19:12 0.01 0 32.62 0.26
3/17/17 02:14:12 5.78 0 31.61 0
3/17/17 02:09:12 4.15 0 32.17 0
3/17/17 02:04:13 2.23 0 31.49 0
3/17/17 01:59:13 5.29 0 31.83 0.26
3/17/17 01:54:13 6.39 0 31.32 0
3/17/17 01:49:13 3.98 0 32.28 0
3/17/17 01:44:14 4.33 0 32.06 0
3/17/17 01:39:14 6.79 0 31.94 0
3/17/17 01:34:14 4.28 0 32.73 0
3/17/17 01:29:15 6.85 0 32.79 0
3/17/17 01:24:15 5.01 0 32.68 0
3/17/17 01:19:15 6.34 0 32.62 0
3/17/17 01:14:16 7.21 0 33.52 0
3/17/17 01:09:16 7.33 0 31.66 0
3/17/17 01:04:16 8.42 0 32.11 0
3/17/17 00:59:16 5.21 0 32.34 0
3/17/17 00:54:17 3.56 0 31.94 0.39
3/17/17 00:49:17 4.08 0 32.45 0.26
3/17/17 00:44:17 7.2 0 32.28 0
3/17/17 00:39:18 7.57 0 32.45 0
3/17/17 00:34:23 6.84 0 32.17 0.13
3/17/17 00:29:18 5.17 0 33.35 0.26
3/17/17 00:24:24 6.24 0 33.07 0
3/17/17 00:19:19 -3.75 0 33.07 0
3/17/17 00:14:19 6.19 0 32.56 0
3/17/17 00:09:20 7.39 0 32.56 0.26
3/17/17 00:04:20 3.17 0 32.62 0
3/16/17 23:59:20 6.76 0 32.39 0.26
3/16/17 23:54:20 6.27 0 32.9 0
3/16/17 23:49:21 5.16 0 32.73 0
3/16/17 23:44:21 4.12 0 32.34 0.13
3/16/17 23:39:21 3.69 0 32.22 0
3/16/17 23:34:22 7.5 0 32.73 0
3/16/17 23:29:22 4.08 0 32.45 0
3/16/17 23:24:22 4.57 0 32.51 0.39
3/16/17 23:19:23 5.29 0 32.73 0
3/16/17 23:14:23 7.44 0 33.07 0.26
3/16/17 23:09:23 6.24 0 33.07 0
3/16/17 23:04:24 7.22 0 32.96 0.26
3/16/17 22:55:38 7.98 0 33.13 0
3/16/17 22:50:38 8.79 0 33.52 0.66
3/16/17 22:45:38 6.32 0 33.69 0.39
3/16/17 22:40:39 6.73 0 33.74 0
3/16/17 22:35:44 7.74 0 33.8 0.13
3/16/17 22:30:39 5.58 0 33.69 0.66
3/16/17 22:25:40 7.58 0 33.69 0.66
3/16/17 22:20:40 8.09 0 33.91 0
3/16/17 22:15:40 7.13 0 33.74 0.26
3/16/17 22:10:46 8.7 0 33.97 0.53
3/16/17 22:05:41 7.24 0 34.19 0.53
3/16/17 22:00:41 8.92 0 34.08 0
3/16/17 21:55:42 8.86 0 34.08 0.66
3/16/17 21:50:47 7.47 0 33.8 0
3/16/17 21:45:42 8.96 0 34.53 0.53
3/16/17 21:40:48 9.22 0 34.25 0.13
3/16/17 21:35:43 9.16 0 34.25 0.66
3/16/17 21:30:43 6.63 0 34.14 0
3/16/17 21:25:43 9.15 0 33.91 0
3/16/17 21:20:44 5.59 0 34.25 0
3/16/17 21:15:44 7.91 0 34.25 0.26
3/16/17 21:10:44 8.55 0 34.47 0.26
3/16/17 21:05:45 9.17 0 34.59 0.26
3/16/17 21:00:45 10.95 0 34.7 0.13
3/16/17 20:55:45 8.25 0 34.87 0.13
3/16/17 20:50:45 7.34 0 34.93 0.26
3/16/17 20:45:46 11.21 0 35.26 0
3/16/17 20:40:46 7.61 0 35.49 0
3/16/17 20:35:46 -0.37 0 35.21 0.26
3/16/17 20:30:47 8.63 0 35.88 0
3/16/17 20:25:47 10.73 0 35.15 0
3/16/17 20:20:47 8.73 0 35.21 0.66
3/16/17 20:15:48 9.95 0 35.66 0.26
3/16/17 20:10:48 10.55 0 35.49 0.66
3/16/17 20:05:48 10.05 0 35.83 0.13
3/16/17 20:00:48 10.1 0 35.49 0.66
3/16/17 19:55:49 7.35 0 35.77 0
3/16/17 19:50:49 10.61 0 35.71 0.13
3/16/17 19:45:49 9.02 0 35.6 1.18
3/16/17 19:40:50 10.97 0 36.16 1.84
3/16/17 19:35:50 10.31 0 35.54 5.12
3/16/17 19:30:50 6.77 0 35.83 17.21
3/16/17 19:25:51 10.12 0 36.11 37.97
3/16/17 19:20:54 11.03 0 36.39 58.59
3/16/17 19:15:51 11.37 0 36.22 73.44
3/16/17 19:10:51 10.83 0 36.11 84.34
3/16/17 19:05:57 11.33 0 36.56 92.75
3/16/17 19:00:52 9.01 0 37.12 99.19
3/16/17 18:55:52 11.44 0 37.29 104.18
3/16/17 18:50:53 10.01 0 37.23 106.55
3/16/17 18:45:53 11.46 0 37.63 109.31
3/16/17 18:40:58 9.3 0 38.24 112.59
3/16/17 18:35:54 9.99 0 37.91 113.25
3/16/17 18:30:59 11.8 0 38.19 113.12
3/16/17 18:25:54 10.28 0 38.75 113.51
3/16/17 18:20:54 5.68 0 38.69 114.3
3/16/17 18:15:55 12.01 0 38.75 114.82
3/16/17 18:10:55 10.02 0 38.75 115.35
3/16/17 18:05:55 13.48 0 38.81 115.74
3/16/17 18:00:56 12.73 0 39.09 116.01
3/16/17 17:55:56 13.37 0 39.09 116.4
3/16/17 17:50:56 10.71 0 39.88 118.37
3/16/17 17:45:57 13.7 0 39.65 118.63
3/16/17 17:40:57 14.69 0 39.59 122.84
3/16/17 17:35:57 10.68 0 40.21 125.07
3/16/17 17:31:12 16.54 0 41.84 125.07
3/16/17 17:25:58 19.71 195.312 43.59 125.73
3/16/17 17:20:59 29.54 244.141 53.21 126.52
3/16/17 17:15:58 21.05 317.383 56.02 125.99
3/16/17 17:11:09 -15.24 317.383 59.17 126.12
3/16/17 17:06:04 -11.5 292.969 54.61 126.52
3/16/17 17:01:04 21.77 317.383 55.29 126.65
3/16/17 16:56:09 -14.8 366.211 60.97 125.99
3/16/17 16:51:00 -14.27 366.211 58.38 126.39
3/16/17 16:46:00 7.52 390.625 61.59 126.52
3/16/17 16:41:00 50.13 439.453 62.49 126.12
3/16/17 16:36:12 10.26 512.695 62.83 127.17
3/16/17 16:31:12 62.9 537.109 56.81 119.69
3/16/17 16:26:06 -9.91 537.109 59.73 125.99
3/16/17 16:21:01 47.93 610.352 65.97 125.6
3/16/17 16:16:07 -13.9 610.352 60.74 126.91
3/16/17 16:11:02 -11.67 732.422 64.57 122.84
3/16/17 16:06:02 25.58 219.727 52.76 123.5
3/16/17 16:01:03 77.89 610.352 59 126.78
3/16/17 15:56:18 121.59 610.352 57.09 127.44
3/16/17 15:51:03 18.78 195.312 56.3 120.08
3/16/17 15:46:09 58.98 683.594 63.44 125.47
3/16/17 15:41:05 -0.7 683.594 63.89 124.81
3/16/17 15:36:04 27.78 708.008 65.58 124.81
3/16/17 15:31:04 56.01 732.422 62.49 125.6
3/16/17 15:26:05 0.11 781.25 58.94 125.47
3/16/17 15:21:05 17.62 830.078 65.64 125.33
3/16/17 15:16:05 17.61 830.078 64.34 125.47
3/16/17 15:11:06 10.11 488.281 58.27 121.13
3/16/17 15:06:06 33.34 927.734 65.64 124.94
3/16/17 15:01:06 41.37 830.078 65.69 123.89
3/16/17 14:56:06 21.91 927.734 70.64 123.89
3/16/17 14:51:07 53.43 903.32 69.97 124.55
3/16/17 14:46:07 -17.19 927.734 63.67 125.33
3/16/17 14:41:07 -10.15 903.32 64.85 125.6
3/16/17 14:36:08 17.05 952.148 65.19 124.02
3/16/17 14:31:08 -8.47 927.734 70.76 125.2
3/16/17 14:26:08 -15.81 976.562 65.41 118.77
3/16/17 14:21:08 40.45 146.484 51.74 119.42
3/16/17 14:16:09 -15.62 1074.22 68 126.39
3/16/17 14:11:09 37.57 292.969 56.24 122.31
3/16/17 14:06:09 54.23 244.141 50.45 119.55
3/16/17 14:01:10 18.12 1123.05 60.8 126.25
3/16/17 13:56:10 57.2 1147.46 66.87 122.97
3/16/17 13:51:10 25.28 512.695 59.79 124.42
3/16/17 13:46:10 14.08 512.695 60.13 118.77
3/16/17 13:41:11 17.67 1147.46 67.72 125.2
3/16/17 13:36:11 -11.73 1098.63 65.3 126.78
3/16/17 13:31:11 38.9 1049.8 59.9 120.08
3/16/17 13:26:12 -12.76 1123.05 64.91 123.89
3/16/17 13:21:12 12.63 1171.88 55.96 126.91
3/16/17 13:16:12 16.59 1196.29 62.09 125.47
3/16/17 13:11:13 99.91 268.555 49.83 126.91
3/16/17 13:06:13 10.8 878.906 58.27 125.86
3/16/17 13:01:13 35.17 683.594 55.63 117.98
3/16/17 12:56:13 40.76 1049.8 66.76 125.6
3/16/17 12:51:14 56.19 1196.29 54.56 128.36
3/16/17 12:46:14 40.59 341.797 50.34 120.08
3/16/17 12:41:14 9.77 1074.22 62.21 125.33
3/16/17 12:36:15 36.06 219.727 52.25 121.52
3/16/17 12:31:15 20.88 1098.63 63.5 124.02
3/16/17 12:26:15 62.81 1196.29 61.42 124.68
3/16/17 12:21:15 14.32 1123.05 58.83 125.47
3/16/17 12:16:16 13.41 1074.22 59.28 125.33
3/16/17 12:11:21 27.02 1074.22 50.28 125.6
3/16/17 12:06:16 43.38 219.727 46.63 127.31
3/16/17 12:01:17 -0.05 1025.39 47.92 125.2
3/16/17 11:56:17 11.03 1049.8 45.22 126.12
3/16/17 11:51:17 57.01 1025.39 45.95 126.39
3/16/17 11:46:23 78.81 219.727 44.15 126.52
3/16/17 11:41:18 67.35 1000.98 45.11 125.33
3/16/17 11:36:18 -11.95 1000.98 46.12 125.99
3/16/17 11:31:19 2.34 927.734 44.26 127.04
3/16/17 11:26:24 0.57 1025.39 44.04 127.31
3/16/17 11:21:19 -2.41 976.562 42.18 127.83
3/16/17 11:16:23 22.9 1025.39 44.77 127.57
3/16/17 11:11:20 39.14 170.898 43.76 118.5
3/16/17 11:06:20 12.12 976.562 43.64 127.04
3/16/17 11:01:20 3 927.734 43.03 126.78
3/16/17 10:56:24 1.4 952.148 45.05 127.04
3/16/17 10:51:21 8.44 903.32 45.72 126.65
3/16/17 10:46:21 -3.94 903.32 44.38 127.44
3/16/17 10:41:27 2.94 878.906 40.94 127.7
3/16/17 10:36:22 17.26 854.492 43.98 126.91
3/16/17 10:31:22 29.25 854.492 43.53 127.17
3/16/17 10:26:22 0.5 854.492 42.24 125.99
3/16/17 10:21:23 27.48 854.492 40.94 128.09
3/16/17 10:16:23 8.87 805.664 39.76 127.96
3/16/17 10:11:23 2.61 781.25 39.65 128.09
3/16/17 10:06:24 8.27 732.422 38.75 128.49
3/16/17 10:01:24 16.12 732.422 38.81 127.83
3/16/17 09:56:24 22.73 708.008 39.2 128.23
3/16/17 09:51:26 5.2 708.008 38.86 128.36
3/16/17 09:46:25 29.33 683.594 37.23 128.75
3/16/17 09:41:25 2.89 634.766 35.6 129.01
3/16/17 09:36:26 9.79 634.766 35.26 129.28
3/16/17 09:31:31 10.54 585.938 35.43 129.14
3/16/17 09:26:26 -1.18 561.523 36.05 128.75
3/16/17 09:21:32 7.8 561.523 35.71 128.75
3/16/17 09:16:27 -0.17 537.109 34.93 128.75
3/16/17 09:11:27 17.04 512.695 33.52 129.01
3/16/17 09:06:27 28.8 512.695 32.34 129.14
3/16/17 09:01:28 16.71 439.453 32.45 128.88
3/16/17 08:56:28 -6.11 415.039 32 129.01
3/16/17 08:51:28 -3.55 439.453 31.89 128.62
3/16/17 08:46:30 -1.45 390.625 32.11 128.62
3/16/17 08:41:34 0.21 390.625 30.82 128.62
3/16/17 08:36:29 -0.01 366.211 30.48 128.49
3/16/17 08:31:30 7.49 366.211 29.86 128.09
3/16/17 08:26:30 0.56 292.969 29.92 127.83
3/16/17 08:21:30 5.26 244.141 29.75 127.44
3/16/17 08:16:31 0.28 219.727 28.91 126.91
3/16/17 08:11:31 0.45 219.727 28.4 126.39
3/16/17 08:06:31 -2.71 195.312 28.12 125.73
3/16/17 08:01:31 1.32 170.898 27.5 124.68
3/16/17 07:56:32 0.02 170.898 26.94 123.5
3/16/17 07:51:32 -0.96 0 26.94 122.18
3/16/17 07:46:32 -2.12 0 25.7 120.21
3/16/17 07:41:33 -3.84 0 24.91 115.22
3/16/17 07:36:33 -4.09 0 24.74 113.64
3/16/17 07:31:33 -3.43 0 24.8 112.46
3/16/17 07:26:34 -4.68 0 24.29 108.78
3/16/17 07:21:34 -3.84 0 24.52 105.5
3/16/17 07:16:39 -5.22 0 24.12 101.42
3/16/17 07:11:35 -3.9 0 24.18 94.86
3/16/17 07:06:35 -4.59 0 24.01 85.79
3/16/17 07:01:35 -5.66 0 24.12 73.83
3/16/17 06:56:37 -4.8 0 24.07 58.07
3/16/17 06:51:36 -6.52 0 23.84 36.79
3/16/17 06:46:36 -4.82 0 24.35 16.16
3/16/17 06:41:37 -4.85 0 24.57 4.86
3/16/17 06:36:37 -4.71 0 24.52 1.31
3/16/17 06:31:37 -2.34 0 24.46 0.79
3/16/17 06:26:38 -8.04 0 24.41 0.39
3/16/17 06:21:38 -5.05 0 24.29 0
3/16/17 06:16:38 -1.71 0 24.41 0
3/16/17 06:11:39 -2.1 0 24.24 0.53
3/16/17 06:06:39 -1.48 0 24.12 0.13
3/16/17 06:01:39 -2.35 0 24.41 0
3/16/17 05:56:40 -3.74 0 24.29 0
3/16/17 05:51:40 -2.35 0 24.41 0.13
3/16/17 05:46:40 -1.3 0 24.74 0.13
3/16/17 05:41:40 -5.54 0 25.14 0.39
3/16/17 05:36:41 -8.6 0 24.57 0.53
3/16/17 05:31:41 -4.71 0 24.52 0
3/16/17 05:26:41 -1.58 0 24.74 0
3/16/17 05:21:42 -3.83 0 24.97 0.39
3/16/17 05:16:42 -3.66 0 24.74 0.53
3/16/17 05:11:42 -3.68 0 25.02 0.26
3/16/17 05:06:43 -2.52 24.4141 24.69 0.13
3/16/17 05:01:43 -2.51 0 24.74 0.13
3/16/17 04:56:43 -4.57 0 24.91 0
3/16/17 04:51:44 -4.69 0 25.42 0.26
3/16/17 04:46:44 -3.09 0 24.69 0.13
3/16/17 04:41:44 -2.8 0 24.74 0.39
3/16/17 04:36:45 -2.36 0 25.19 0
3/16/17 04:31:45 -2.23 0 25.08 0.13
3/16/17 04:26:50 -2.54 0 25.36 0.39
3/16/17 04:21:51 -0.36 0 25.25 0.53
3/16/17 04:16:46 -21.92 0 26.54 0
3/16/17 04:11:46 -3.99 0 25.31 0.53
3/16/17 04:06:47 -4.39 0 25.87 0
3/16/17 04:01:47 -3.3 0 25.14 0
3/16/17 03:56:47 -2.47 0 25.36 0
3/16/17 03:51:48 -1.81 0 25.08 0.39
3/16/17 03:46:48 -21.81 0 25.7 0
3/16/17 03:41:48 -1.67 0 25.42 0
3/16/17 03:36:49 -1.86 0 25.92 0.53
3/16/17 03:31:49 -1.25 0 25.81 0
3/16/17 03:26:52 -2.02 0 25.47 0.53

Previous 1 2 3 4 5 6 7 8 9 10 11 12 13 14 15 16 17 Next